map of MEA home
Great Circle Mapper logo
MEA - Airport
Location
City:  Macaé, Rio de Janeiro, Brazil
ICAO / IATA:SBME / MEA

Details
Type:Airport (Aerodrome, Airfield)
Latitude:22°20'35"S (-22.343030)
Longitude:41°45'58"W (-41.766032)
Datum:WGS 1984
Elevation:8 ft (2 m)
Variation:23.13°W (WMM2015 magnetic declination)
-0.09° annual change
Runways:1
Longest:3937 × 98 ft (1200 × 30 m), paved

Time
Time Zone:UTC-3 (DST-2)
Local Time:

Weather
METAR:SBME 070700Z 08001KT CAVOK 22/22 Q1014
TAF:SBME 070215Z 0706/0718 01005KT 8000 FEW020 TN23/0708Z TX32/0717Z
BECMG 0707/0709 20010KT SCT020
BECMG 0710/0712 17010KT
BECMG 0713/0715 14015KT 7000 BKN016 PROB30 0716/0718 14015G25KT 4000 TSRA BKN012 FEW030CB
RMK PGS

Related Locations
Nearby:
Farthest:IWO: 12181 mi / 19604 km
Iwo Jima [Iwo Jima AB], Iwo Jima Island, 13, JP

Find:

   beyond  
but within

Other Information
Maps:
NOTAMs:
Links:
Sources:

  
flag of Brazil
flag of Rio de Janeiro
  

Sectional Chart

Flight Planning
at skyvector.com

Satellite Image

Google Maps Satellite view

 

Copyright © 2004-2016 Karl L. Swartz. All rights reserved.
The Great Circle Mapper name and logo are trademarks of the Great Circle Mapper.
All other trademarks mentioned herein belong to their respective owners.
Please see credits for attibutions and further copyright information.

  Follow gcmap on Facebook Follow gcmap on Twitter Follow gcmap on Google+ GCmap on LinkedIn

hCard Microformat

Geo Microformat